Regional Weather Roundup
Issued by NWS

Home | Current Version | Previous Version | Graphics & Text | Print | Product List | Glossary On
Versions: 1 2 3 4 5 6 7 8 9 10 11 12 13 14 15 16 17 18 19 20 21 22 23 24 25 26 27 28 29 30 31 32 33 34 35 36 37 38 39 40 41 42 43 44 45 46 47 48
000
ASUS45 KBOU 261407
RWRCO

WEATHER ROUNDUP FOR COLORADO
NATIONAL WEATHER SERVICE DENVER/BOULDER CO
800 AM MDT TUE MAY 26 2015

NOTE: "FAIR" INDICATES FEW OR NO CLOUDS BELOW 12000 FEET WITH NO
SIGNIFICANT WEATHER AND/OR OBSTRUCTIONS TO VISIBILITY.

COZ001>005-013-030-031-261500-
...NORTHWEST COLORADO...

CITY           SKY/WX    TMP DP  RH WIND       PRES   REMARKS
CRAIG          PTSUNNY   48  43  82 E3        30.11S
HAYDEN         CLOUDY    45  39  81 SE7       30.12S
MEEKER         MOSUNNY   47  41  80 CALM      30.12S
MOUNT WERNER   NOT AVBL
STEAMBOAT SPGS PTSUNNY   42  39  89 CALM      30.14R
WALDEN         CLOUDY    37  34  87 CALM      30.23R
$$

COZ006>008-011-261500-
...WEST CENTRAL VALLEYS...

CITY           SKY/WX    TMP DP  RH WIND       PRES   REMARKS
GRAND JUNCTION MOSUNNY   53  46  77 SE9       30.07R
MONTROSE       SUNNY     53  40  61 SE6       30.13S
EAGLE          PTSUNNY   46  45  93 CALM      30.17R
RIFLE          CLOUDY    47  43  86 SE6       30.12S
DELTA          SUNNY     55  44  66 MISG      30.12R
NUCLA          SUNNY     50  39  66 E5        30.17R
$$

COZ017>023-064>068-261500-
...SOUTHWEST COLORADO...

CITY           SKY/WX    TMP DP  RH WIND       PRES   REMARKS
DURANGO        SUNNY     44  39  82 CALM      30.18R
CORTEZ         MOSUNNY   47  42  83 CALM      30.14R
PAGOSA SPRINGS SUNNY     44  41  89 CALM      30.22R
TELLURIDE      MOSUNNY   40  36  86 E5        30.27R
WOLF CREEK PAS NOT AVBL
$$

COZ009-010-012-014-032>034-037-058>063-261500-
...CENTRAL COLORADO...

CITY           SKY/WX    TMP DP  RH WIND       PRES   REMARKS
ASPEN          CLOUDY    44  39  82 CALM      30.17R
BUENA VISTA    MOSUNNY   43  36  76 CALM      30.18R
COPPER MTN     CLOUDY    34  30  86 W16       30.30R WCI  23
BERTHOUD PASS  CLOUDY    27  18  69 NW23      30.30R WCI  12
COTTONWOOD PAS CLOUDY    46  30  53 N5        30.23R
GUNNISON       MOSUNNY   43  36  75 N3        30.22S
KREMMLING      CLOUDY    43  37  81 CALM      30.18R
LEADVILLE      CLOUDY    38  32  79 N7        30.22R
MONARCH PASS   CLOUDY    30  28  93 MISG      30.41R
SALIDA         MOSUNNY   47  37  67 N3        30.24R
SUNLIGHT       FOG       36  36 100 CALM      30.30R VSB 3/4
WILKERSON PASS CLOUDY    36  28  75 NW5       30.31R
$$

COZ069>075-261500-
...SAN LUIS VALLEY/SANGRE DE CRISTO MOUNTAINS...

CITY           SKY/WX    TMP DP  RH WIND       PRES   REMARKS
ALAMOSA        SUNNY     45  37  73 S5        30.19R
LA VETA PASS   MOSUNNY  N/A N/A N/A MISG      30.25R
SAGUACHE       PTSUNNY   46  36  66 CALM      30.21R
$$

COZ035-036-038>040-261500-
...NORTHERN COLORADO FRONT RANGE...

CITY           SKY/WX    TMP DP  RH WIND       PRES   REMARKS
DENVER INTL AP PTSUNNY   53  44  71 SW8       30.06R
DMNS CITY PARK   N/A     50  43  79 SW6       30.07R
AURORA         PTSUNNY   51  44  76 S6        30.08R
FRONT RANGE AP PTSUNNY   57  46  67 CALM      30.08R
ERIE MUNI ARPT CLOUDY    48  46  91 CALM      30.06R
BOULDER MUN AP MOSUNNY   52  45  76 CALM      30.06R
CENTENNIAL     PTSUNNY   49  46  90 E5        30.08R
BROOMFIELD     MOSUNNY   50  46  87 CALM      30.07R
FORT COLLINS   CLOUDY    50  46  87 S5        30.07R
LONGMONT       CLOUDY    54  45  70 CALM      30.07R
$$

COZ041-046-047-076>085-087-088-261500-
...PIKES PEAK/PALMER DIVIDE AND SOUTHERN FOOTHILLS...

CITY           SKY/WX    TMP DP  RH WIND       PRES   REMARKS
COLO. SPRINGS  MOSUNNY   53  40  61 SE7       30.11R
A. F. ACADEMY  SUNNY     48  42  79 N3        30.11R
ELLICOTT       NOT AVBL
FALCON         MOSUNNY   53  37  54 S3        30.13R
FORT CARSON    MOSUNNY   49  44  81 N3        30.09R
LIMON          PTSUNNY   52  44  74 W5        30.07R
MONUMENT HILL  NOT AVBL
TRINIDAD       SUNNY     51  44  77 W12       30.10R
$$

COZ042>045-048>051-090-091-261500-
...NORTHEAST COLORADO...

CITY           SKY/WX    TMP DP  RH WIND       PRES   REMARKS
GREELEY ARPT   CLOUDY    52  46  82 SW3       30.05S
AKRON          MOSUNNY   54  49  83 NW7       30.04R
BURLINGTON     MOSUNNY   55  48  77 W7        30.02R
WRAY           MOSUNNY   57  52  82 NW10      30.00R
STERLING       CLOUDY    54  50  87 NW5       30.02R
HOLYOKE        NOT AVBL
FORT MORGAN    MOSUNNY   54  46  75 N5        30.04S
$$

COZ086-089-092>099-261500-
...SOUTHEAST COLORADO...

CITY           SKY/WX    TMP DP  RH WIND       PRES   REMARKS
PUEBLO         SUNNY     53  46  77 NW5       30.06R
LA JUNTA       PTSUNNY   57  48  72 SW8       30.06R
LAMAR          SUNNY     59  53  80 W7        30.03R
SPRINGFIELD      N/A     57  46  66 N7        30.05R
$$



USA.gov is the U.S. government's official web portal to all federal, state and local government web resources and services.